Wind_Speed
26 26 25 25 24 23 23 22 20 18 16 14 13 12 11 10 9 8 6 6 6 6 6 8 8 9 9 9 8 7 6 4 5 6 4 2 4 5 5 6 9 10 10 10 10 10 11 11 11 11 13 16 17 22 22 16 14 9 5 2 2 2 2 4 5 6 5 4 6 13 15 10 7 8 8 7 8 12 11 5 6 7 4 10 17 19 26 29
26 26 26 26 25 24 23 22 20 18 15 14 13 12 11 10 9 8 6 6 6 6 6 7 8 9 9 9 8 7 6 4 3 3 1 1 1 3 3 5 7 9 11 11 9 10 12 10 9 11 13 14 15 20 19 10 10 10 3 4 4 4 3 4 8 10 8 7 10 14 16 13 10 12 12 6 6 11 7 4 7 7 8 14 18 21 26 29
26 26 26 26 25 24 23 21 20 18 15 13 12 11 11 10 9 8 7 5 5 5 6 7 8 9 9 9 9 7 5 3 1 2 3 6 3 0 3 5 7 8 9 9 9 9 11 10 10 13 16 13 14 17 14 9 7 11 6 5 4 6 4 4 12 17 16 15 13 13 13 12 14 15 13 8 7 8 6 8 9 11 17 20 22 24 26 28
25 26 26 26 26 25 23 21 19 17 15 13 11 11 10 10 10 9 7 5 5 5 5 6 7 8 10 9 8 7 5 3 3 4 5 7 4 1 4 5 6 7 8 8 8 9 9 11 11 15 17 12 13 13 11 13 9 7 6 5 6 7 4 5 14 22 22 20 18 16 12 10 15 15 12 12 8 4 9 15 15 17 24 25 25 25 26 28
25 26 26 26 26 25 24 21 18 17 15 13 11 10 10 10 10 9 8 6 5 5 5 6 7 8 9 9 8 6 4 3 2 4 5 6 4 2 4 4 5 6 7 8 9 8 8 9 11 15 13 10 12 9 8 15 12 2 4 13 14 9 6 8 16 24 24 21 19 17 11 11 15 11 13 16 7 4 12 19 18 19 26 28 27 27 27 28
24 25 26 26 26 25 24 21 19 17 15 13 11 10 10 10 10 10 9 6 5 5 4 5 6 7 9 9 8 5 1 2 2 3 5 6 5 3 3 4 5 6 7 8 8 8 7 7 10 13 8 7 10 7 7 9 8 1 4 13 18 14 11 11 16 23 25 23 18 15 13 16 14 6 15 17 5 3 8 16 18 18 25 27 27 28 28 29
25 25 26 26 26 25 24 21 19 17 15 13 11 10 10 10 10 10 9 7 5 5 4 4 5 7 8 9 7 4 3 1 4 5 3 7 5 4 3 4 4 6 6 7 7 6 6 9 13 15 8 4 6 6 12 7 6 5 4 8 15 18 15 15 18 22 25 23 20 19 16 16 12 6 14 14 4 2 6 13 18 19 23 26 25 26 27 28
25 25 26 26 26 26 24 21 19 18 16 13 11 10 10 10 10 10 9 8 6 5 4 4 5 6 7 8 7 5 4 2 3 4 1 5 4 4 4 5 4 5 5 6 6 3 6 10 15 14 6 4 7 8 17 12 6 5 4 10 11 15 17 19 21 22 23 23 25 22 15 14 12 9 12 10 4 6 9 13 18 20 22 24 23 23 24 26
25 26 26 26 26 25 24 21 19 18 15 13 11 10 10 10 10 10 9 8 6 5 4 4 5 6 6 6 6 4 1 4 5 2 2 4 2 4 6 6 5 5 4 4 2 3 6 10 15 15 9 8 11 10 16 11 3 5 0 12 12 13 17 21 22 23 23 21 23 17 8 9 10 9 6 7 10 10 12 16 19 21 21 21 20 21 18 18
25 26 26 26 26 25 24 21 19 18 16 14 12 10 10 9 9 9 8 7 6 5 5 4 5 6 6 5 4 1 4 7 4 1 2 2 1 5 6 7 5 5 4 3 2 4 7 12 17 21 16 10 11 10 13 8 3 12 5 11 17 17 17 21 20 22 23 18 20 14 4 6 7 6 2 6 12 14 16 18 19 21 21 20 18 18 15 11
25 26 26 26 26 25 24 21 19 18 16 15 13 10 9 9 8 7 7 7 6 5 5 5 5 6 6 6 4 3 6 6 2 4 2 2 4 7 7 6 4 2 2 4 5 6 12 15 18 19 11 7 12 12 11 8 11 17 9 5 13 16 14 16 15 20 20 11 18 18 5 3 4 3 6 11 14 16 20 20 20 20 20 20 19 19 17 15
25 26 26 26 26 25 23 21 19 18 17 15 12 9 8 7 6 6 7 6 6 5 6 6 5 6 7 8 8 6 6 6 1 4 3 3 7 7 6 4 2 2 3 5 6 6 10 11 14 15 10 9 10 7 10 14 18 19 11 4 6 6 5 9 8 15 15 8 21 21 7 4 4 4 12 16 17 18 21 21 20 18 15 17 18 18 17 16
26 26 25 25 25 24 23 20 19 18 17 14 11 9 7 5 5 5 6 6 5 6 6 5 5 5 7 8 7 8 6 5 4 2 3 2 7 6 4 1 2 4 5 7 8 8 8 8 12 16 15 12 6 5 13 19 17 14 8 2 5 3 2 8 6 9 12 14 26 16 3 3 5 7 16 17 20 21 19 18 18 17 14 14 15 16 17 16
26 26 26 25 24 24 22 20 19 18 16 13 10 7 5 3 4 5 5 6 5 6 5 4 4 5 7 6 7 11 10 9 9 7 2 2 3 3 2 1 3 3 6 9 9 9 8 8 12 15 14 10 8 11 13 13 9 6 4 2 3 3 4 8 7 10 10 11 20 9 2 4 2 5 14 15 19 21 17 15 16 16 16 15 15 16 17 16
27 26 26 25 24 23 21 19 19 17 15 11 9 6 3 2 3 4 4 5 5 5 4 3 4 5 8 6 7 12 11 9 12 10 4 4 3 4 3 3 4 3 5 7 6 6 6 7 10 11 12 11 11 9 6 5 5 1 1 4 1 3 5 5 6 9 10 8 10 8 4 3 2 3 9 13 17 18 16 14 14 14 16 16 15 13 13 13
27 27 26 24 24 23 20 18 18 17 14 10 8 5 2 2 3 4 4 5 5 5 5 3 4 4 6 4 6 12 11 10 12 10 7 8 7 7 5 5 7 5 6 7 5 6 7 8 11 10 10 9 5 2 4 5 5 2 3 5 2 4 4 4 2 4 12 11 2 4 5 2 1 2 7 13 16 17 15 13 12 11 12 12 10 10 10 12
27 26 25 24 23 22 19 18 17 16 13 10 8 5 3 2 3 3 4 5 5 6 6 4 4 6 6 5 6 12 16 14 13 13 12 11 9 9 8 10 11 9 9 10 9 10 10 9 8 7 6 3 1 4 4 4 5 4 2 4 3 6 7 5 3 3 6 10 3 3 6 4 2 5 11 14 17 18 16 13 10 7 7 6 6 8 9 10
27 26 25 23 22 21 18 17 16 14 12 10 7 6 4 2 2 3 3 5 5 5 5 7 6 3 3 7 6 11 17 15 12 12 13 12 10 8 10 13 12 10 11 11 11 12 10 7 3 2 3 2 0 4 2 5 6 5 4 3 1 5 8 6 6 4 4 8 6 7 8 6 3 4 9 11 13 15 13 9 6 4 5 5 4 4 6 7
26 25 24 22 21 20 17 15 14 12 11 9 8 6 5 4 2 2 2 4 6 4 2 6 7 2 4 8 9 9 12 9 8 10 11 11 10 8 7 9 11 10 7 5 6 8 8 3 1 2 4 4 5 5 8 11 10 8 9 2 4 5 5 6 7 9 11 10 6 8 8 5 4 4 4 4 4 6 6 5 4 4 5 3 3 2 3 5
26 24 22 21 19 17 14 13 11 9 8 7 7 6 5 5 1 1 6 8 10 9 9 8 10 11 13 11 10 5 9 9 9 12 11 10 10 10 7 8 10 8 5 3 3 5 6 4 3 5 8 9 10 9 11 13 10 10 10 4 3 6 5 9 12 9 13 10 4 7 9 5 5 4 5 6 6 8 10 6 3 3 3 1 3 1 1 4
25 23 21 20 17 15 12 10 8 6 6 6 7 7 4 4 2 4 10 11 12 14 17 15 15 19 18 12 7 3 8 13 12 11 10 11 10 8 8 8 5 4 7 6 4 3 4 5 7 11 13 13 12 11 11 12 11 11 7 2 4 5 6 8 10 5 7 10 4 6 10 6 5 5 8 11 9 9 12 9 5 1 1 1 3 4 5 6
25 22 20 18 16 13 9 6 4 2 3 5 7 7 7 8 7 7 9 9 13 14 14 15 17 21 19 12 5 4 8 12 12 10 11 13 13 9 7 7 4 4 5 3 2 4 1 5 12 15 13 11 12 12 12 12 8 7 4 4 5 8 10 7 6 2 3 8 5 5 10 5 5 5 7 9 6 6 10 9 7 5 5 4 6 7 6 5
24 21 19 16 14 11 6 3 1 1 1 3 5 8 9 9 8 8 9 8 11 13 13 13 16 18 17 12 5 7 10 10 11 13 13 13 14 12 8 6 5 5 3 0 2 2 3 8 13 15 11 8 10 11 8 5 2 2 3 3 4 9 12 5 1 1 5 6 8 8 8 4 5 4 3 6 8 9 11 11 11 11 10 9 9 10 8 5
23 21 18 15 12 8 4 3 2 3 2 2 5 10 9 7 5 8 10 6 6 9 13 14 14 15 15 10 4 9 12 9 10 13 16 15 14 12 9 7 4 3 4 4 5 5 8 15 14 11 12 10 7 4 2 4 5 4 4 2 4 9 12 11 8 6 9 7 9 11 7 3 5 5 4 6 10 12 14 16 18 16 14 14 14 14 13 9
23 20 17 14 11 7 5 6 4 4 3 4 9 12 8 5 5 7 7 3 3 6 8 11 12 14 13 8 6 10 10 10 12 14 18 19 17 11 7 9 5 3 7 7 6 6 10 20 15 6 8 5 2 3 2 3 2 4 5 6 6 16 15 13 13 10 8 2 6 6 6 2 4 4 3 5 6 8 13 16 18 19 19 18 17 17 16 15
22 19 16 13 10 7 6 6 5 6 4 4 9 13 10 6 8 6 2 3 2 3 2 6 7 8 10 10 12 9 4 8 15 17 19 19 19 13 5 5 3 3 6 5 4 3 6 15 10 3 3 1 6 4 3 2 1 1 5 5 11 23 19 16 15 8 5 4 7 4 4 2 3 4 3 3 4 5 9 11 16 20 21 19 18 16 16 17
21 19 15 13 10 7 7 7 7 6 5 5 8 10 8 7 11 8 1 4 3 3 2 5 7 5 7 10 12 8 1 5 11 15 20 18 17 17 8 3 1 3 4 2 2 3 3 7 4 3 2 3 6 2 5 1 4 2 6 3 13 21 20 21 16 6 5 3 1 2 5 5 1 2 2 2 4 6 7 8 12 18 18 18 18 17 16 15
21 18 14 12 10 7 7 10 9 5 4 5 5 5 4 4 8 6 2 2 1 3 2 5 7 4 7 10 15 13 3 2 4 10 21 19 13 12 7 4 3 6 5 2 3 6 1 2 2 3 4 4 2 3 6 3 4 5 8 3 7 12 15 16 12 5 4 4 3 1 5 5 1 1 1 1 4 6 7 6 9 14 15 16 18 18 16 15
20 17 14 12 10 8 8 11 10 5 5 6 4 4 4 3 4 2 3 2 1 2 2 5 6 4 7 10 13 14 7 4 2 9 19 19 13 7 4 7 7 6 7 4 4 8 6 7 5 6 5 2 4 7 7 4 3 7 4 1 2 1 3 5 8 6 4 5 2 5 3 4 3 0 2 1 3 4 4 4 7 11 14 15 17 18 18 17
18 16 13 11 10 7 8 10 9 7 7 7 5 5 4 3 2 3 3 0 2 2 2 5 5 5 7 5 5 7 6 6 3 13 14 13 13 9 4 7 6 3 5 3 5 9 11 10 4 4 4 6 6 6 5 4 5 3 3 5 6 6 5 4 4 5 5 3 3 4 2 4 3 1 2 0 1 3 5 5 6 10 13 14 16 19 20 20
17 14 11 10 8 5 7 8 9 8 7 6 5 4 3 3 3 4 1 2 2 2 2 2 3 5 8 5 3 3 3 4 6 12 7 6 6 5 2 3 3 1 4 4 5 7 5 3 2 2 5 4 1 3 5 6 4 3 5 4 4 5 5 5 4 4 5 1 3 2 7 8 4 1 1 3 4 5 6 5 5 7 10 12 16 18 20 21
15 12 9 7 6 5 7 7 8 7 4 4 3 5 3 3 2 2 2 2 2 3 3 3 4 3 6 6 4 4 3 4 5 8 5 4 2 2 3 3 3 2 3 3 3 6 5 2 3 2 0 2 4 3 6 7 6 5 3 4 3 3 4 4 3 3 2 1 1 4 6 7 4 2 4 7 7 7 8 8 9 9 9 12 15 18 20 20
12 8 6 4 3 4 8 9 8 6 3 3 3 4 4 4 1 3 2 2 2 3 3 4 4 4 6 5 4 4 3 4 5 5 5 4 3 3 5 5 5 4 2 3 2 3 4 5 2 1 2 1 4 3 3 4 4 3 2 2 4 1 2 2 2 2 2 2 2 1 3 5 3 2 4 7 9 10 13 13 14 12 10 11 14 17 18 19
8 5 4 3 2 5 11 10 7 6 3 3 2 3 4 2 3 3 3 4 4 3 1 5 6 5 5 5 4 3 2 3 5 6 5 2 1 3 4 4 5 5 2 1 2 2 1 3 2 2 2 1 2 3 5 1 3 2 3 5 4 2 3 3 3 2 3 2 1 2 3 4 3 2 4 9 13 15 17 17 16 14 12 12 13 15 17 17
5 3 2 1 2 7 12 10 6 5 3 2 3 4 2 2 3 2 3 4 2 2 3 6 7 4 4 5 4 4 5 4 4 4 4 4 3 3 3 4 6 6 3 1 2 2 2 2 5 3 3 4 2 3 5 3 4 3 2 5 2 2 4 3 2 4 5 3 4 4 3 2 3 4 6 10 12 14 16 17 15 13 12 13 14 15 16 16
4 2 2 1 2 7 12 11 8 6 3 1 3 2 3 4 3 2 1 2 4 3 5 4 4 3 4 3 3 5 6 5 4 3 3 4 4 4 3 4 6 8 6 3 2 1 3 2 5 3 2 3 5 5 2 4 1 2 3 2 5 4 6 3 1 3 5 5 3 2 2 3 4 3 4 8 8 8 10 12 12 12 11 12 13 14 15 15
4 3 3 1 3 6 11 12 9 7 3 3 3 2 4 3 5 4 2 4 8 4 6 3 2 4 3 2 3 5 4 2 3 4 2 3 3 5 5 5 4 7 9 6 1 2 3 2 5 1 3 4 2 2 3 4 3 3 2 3 5 1 4 3 2 3 5 5 1 1 3 4 2 1 2 5 6 5 5 7 10 11 11 12 13 13 13 13
6 6 4 3 6 7 10 11 10 8 3 3 1 4 3 4 6 7 6 7 7 3 4 3 3 5 4 3 5 6 5 2 4 4 3 2 2 3 4 4 3 5 9 7 1 0 4 2 5 2 2 4 5 7 4 6 6 5 1 2 2 3 3 3 2 2 3 3 1 2 3 1 0 2 4 5 6 6 5 5 7 8 9 12 14 13 13 14
7 7 3 4 8 8 9 10 9 6 2 2 1 3 2 4 8 12 15 13 8 4 3 3 3 4 4 5 6 6 6 5 6 4 3 3 2 3 1 1 1 1 1 4 4 1 3 3 3 6 4 2 6 5 1 4 6 4 3 4 3 3 3 2 2 2 4 3 2 3 1 2 2 3 5 5 6 7 6 4 5 7 11 13 13 13 14 15
7 7 3 5 9 8 9 10 8 4 1 1 3 3 3 5 10 19 27 20 7 2 2 3 2 2 3 4 4 4 4 5 6 5 3 3 2 2 4 1 1 4 9 9 5 2 3 4 0 6 6 4 3 0 2 2 1 3 4 3 3 2 2 2 2 2 3 4 3 3 1 2 3 2 4 6 6 5 6 6 7 10 12 12 11 12 13 15
5 5 2 6 10 9 10 10 5 2 1 3 4 3 5 6 9 20 29 19 3 1 1 3 3 3 2 1 1 2 3 4 5 3 1 1 3 1 3 2 4 4 7 8 6 3 1 3 2 2 4 4 2 2 3 4 4 4 3 3 2 2 3 4 2 3 2 4 3 4 3 3 3 1 3 5 4 5 10 12 11 12 13 11 10 11 13 16
2 3 3 8 12 9 9 6 1 2 2 4 5 5 8 8 9 17 21 10 4 3 3 2 2 2 4 2 2 1 1 2 4 3 2 2 3 0 1 8 13 10 7 3 2 1 1 3 3 1 1 1 4 4 5 6 7 7 5 3 3 3 4 5 2 2 2 4 2 4 3 2 4 0 1 4 8 12 16 18 15 13 12 10 9 10 12 14
2 3 2 10 13 7 5 1 4 2 3 7 9 10 12 9 10 16 13 6 5 4 4 2 1 4 4 1 2 4 4 3 4 4 3 3 4 3 6 15 16 10 6 2 2 3 3 3 3 2 4 4 6 6 5 6 7 8 5 4 4 3 3 5 4 3 2 3 2 4 3 3 5 3 5 9 13 16 18 18 16 13 11 9 9 9 10 11
3 1 5 13 12 6 3 1 2 2 5 7 7 10 12 9 10 11 7 5 4 3 3 3 3 5 2 2 2 4 4 5 4 4 4 2 4 7 12 18 14 6 3 2 1 3 2 1 3 3 4 6 7 7 7 7 5 5 4 4 5 4 4 4 3 4 3 2 2 5 2 4 4 3 8 10 12 12 14 13 12 10 8 7 6 6 7 8
6 1 7 12 13 9 6 3 3 3 6 8 8 8 8 9 15 14 7 6 8 6 3 3 5 6 3 3 4 5 7 6 2 2 3 3 2 6 12 17 14 7 4 5 3 2 2 2 3 5 2 1 1 2 3 2 3 4 3 5 6 5 6 4 3 5 3 1 3 5 4 3 1 4 6 6 7 7 8 10 8 6 6 5 6 6 6 6
5 3 2 5 9 11 11 11 8 5 5 5 7 6 6 6 15 21 13 8 13 12 4 2 7 6 5 5 5 7 9 8 5 4 4 3 1 3 10 14 12 7 5 6 6 4 3 2 3 6 6 5 5 5 5 3 3 3 3 6 6 6 7 6 4 4 4 3 4 2 6 7 4 4 3 3 5 4 6 9 7 7 9 8 6 6 5 5
4 2 3 3 3 6 8 9 7 4 4 0 2 3 6 6 8 16 16 8 14 15 7 7 10 5 4 5 5 6 7 8 9 8 6 5 3 3 9 10 9 9 6 6 6 4 4 3 1 3 3 5 6 6 3 4 5 5 6 8 7 8 9 8 6 5 6 6 3 2 6 9 5 4 5 4 5 5 7 9 9 11 12 9 6 5 5 7
5 2 3 5 2 2 2 7 11 9 5 3 1 2 6 10 7 8 12 9 12 15 8 8 12 8 5 6 6 4 6 7 7 6 5 6 5 4 7 7 8 11 7 6 6 5 5 1 3 1 2 5 3 4 4 5 5 6 8 10 9 9 10 9 6 6 6 6 5 6 7 8 6 5 5 6 8 9 9 10 12 12 11 8 6 7 7 9
7 3 4 8 4 3 5 9 13 10 2 3 2 4 5 10 10 7 6 6 7 10 8 6 9 11 9 8 7 4 5 4 3 4 3 4 5 3 4 4 6 10 8 5 4 4 5 0 3 2 4 7 3 3 6 7 6 6 7 8 10 10 10 10 7 6 8 9 9 9 8 6 4 4 6 9 12 14 13 14 13 12 9 7 8 9 8 9
9 7 9 11 8 7 10 10 8 3 2 3 3 3 5 6 9 10 7 5 5 5 7 6 7 9 9 9 8 5 3 4 4 1 2 3 4 3 3 1 2 6 7 4 3 4 4 1 3 4 4 7 5 2 6 9 9 8 7 6 10 12 11 10 9 8 10 9 8 9 9 4 2 5 9 11 12 13 13 14 12 10 8 7 9 8 6 7
9 8 9 9 6 7 10 11 5 2 2 3 1 2 5 6 9 11 9 9 6 4 6 6 6 6 8 9 9 5 5 2 3 2 2 2 1 2 1 1 1 3 4 2 2 3 3 0 2 5 4 5 6 2 9 11 12 12 10 7 7 10 8 6 7 6 8 9 8 7 7 3 3 5 9 9 9 10 9 11 11 8 6 5 8 8 7 9
11 7 9 7 2 5 7 8 6 4 3 4 0 3 2 4 13 15 7 7 8 11 13 11 9 6 5 8 9 10 13 10 6 8 7 3 5 6 5 6 4 1 1 1 2 1 2 3 1 3 3 4 6 2 8 8 9 7 5 5 3 9 9 7 6 5 7 9 7 5 4 4 3 5 7 6 6 6 5 9 9 7 5 5 8 10 10 11
Wind_Direction
359 358 357 356 354 351 348 347 347 345 343 342 343 344 343 342 339 336 329 320 313 310 312 312 314 313 310 308 306 305 312 308 279 287 299 262 210 206 194 186 196 215 227 237 249 254 256 253 260 285 294 294 285 276 285 265 223 209 211 175 175 168 177 179 167 174 158 164 163 177 175 140 149 162 146 151 138 142 149 152 166 193 228 190 185 175 171 174
356 356 355 354 353 351 347 345 345 344 340 337 339 342 343 343 339 337 329 320 312 308 309 311 315 314 311 309 307 316 324 317 286 264 268 19 273 218 185 166 182 205 219 228 238 253 263 261 270 294 295 295 286 275 283 265 195 190 165 98 183 194 208 178 139 154 154 167 169 167 168 153 158 157 149 148 140 152 152 149 149 152 163 167 174 174 174 178
353 353 353 353 352 350 347 344 344 344 339 333 333 337 341 341 339 336 328 319 308 306 305 308 316 314 312 309 312 325 333 332 316 133 72 32 19 165 154 158 168 189 206 214 223 241 260 277 294 305 305 299 283 274 268 248 212 201 176 86 195 200 198 156 135 157 165 166 161 156 165 156 156 158 155 155 154 170 173 162 153 148 155 161 170 175 177 180
351 350 351 351 350 349 347 344 344 343 340 331 326 331 336 338 339 335 327 317 303 301 298 306 315 313 312 310 316 328 344 15 111 104 37 19 20 112 148 158 166 185 197 198 213 230 253 281 301 312 310 295 272 265 253 247 239 201 174 126 183 184 158 153 144 155 162 163 159 151 152 150 157 164 163 149 142 210 209 184 172 164 160 161 171 177 180 181
349 348 349 349 349 348 346 344 342 341 339 330 321 320 328 333 335 334 328 315 300 296 292 305 313 313 312 311 317 328 12 64 105 59 34 28 34 101 139 153 170 192 200 196 207 222 250 287 308 312 305 292 291 278 259 253 239 199 135 147 163 165 147 167 149 146 155 157 152 145 141 155 160 170 176 161 151 230 216 199 186 175 169 168 175 178 180 182
348 347 347 348 348 347 346 343 341 339 335 329 319 310 315 322 328 331 327 315 298 289 286 301 309 312 312 311 317 319 33 111 143 86 47 30 40 79 117 148 173 197 198 196 205 216 254 303 308 301 290 281 297 287 294 270 214 116 88 143 159 154 147 171 148 138 146 142 143 152 146 152 156 176 187 180 195 234 208 198 183 178 175 173 177 178 180 183
347 346 346 347 347 346 345 342 339 337 331 327 317 305 305 310 318 323 324 316 296 284 280 291 303 309 311 311 316 304 282 228 141 125 44 13 34 74 111 144 172 194 187 193 207 221 273 314 300 288 277 270 293 309 332 342 124 95 93 149 162 150 146 163 149 138 141 134 139 151 143 151 162 173 189 195 231 175 171 186 178 174 175 174 176 179 184 187
346 345 345 346 346 345 344 342 339 336 332 326 316 304 298 301 308 313 318 312 291 279 269 278 296 303 310 312 319 316 285 236 137 134 342 349 22 85 122 140 156 175 179 190 202 252 299 312 303 294 280 313 338 355 351 358 87 69 126 152 157 148 146 151 144 138 134 127 132 138 141 159 163 152 178 187 161 154 155 169 172 168 172 177 181 183 188 194
345 344 344 345 345 345 343 342 339 336 333 327 318 303 293 294 299 305 310 305 288 270 258 267 288 298 305 308 317 322 265 134 123 140 303 334 22 114 130 128 132 141 159 180 192 275 295 306 309 314 307 318 337 358 356 355 87 343 197 147 150 150 149 146 140 137 130 125 128 124 128 152 147 131 155 157 140 156 155 159 168 165 171 178 185 187 190 200
345 344 344 344 344 344 343 341 339 336 332 327 320 305 291 286 292 298 299 298 282 261 250 253 276 295 298 307 325 307 142 123 108 28 321 314 112 137 135 125 126 131 146 170 215 261 302 313 314 321 311 311 336 344 344 341 329 321 321 143 155 155 153 152 147 142 131 125 127 117 123 147 138 131 158 159 152 162 157 159 167 168 175 177 181 189 195 206
345 344 344 344 343 343 342 340 338 336 332 327 320 307 290 280 284 289 289 289 273 255 243 245 268 285 292 304 286 212 150 136 88 12 7 217 158 132 128 127 126 131 197 211 213 281 312 312 317 327 320 325 333 327 330 327 323 320 334 104 158 156 153 158 155 147 132 120 130 122 110 106 89 133 174 167 165 168 159 162 171 174 180 179 184 193 200 203
345 345 344 344 343 342 342 340 339 337 334 328 321 310 291 275 274 277 279 278 263 251 240 241 263 277 296 294 251 196 134 142 194 348 2 159 152 129 119 135 176 220 250 233 218 277 305 307 319 326 324 334 330 328 328 319 321 317 331 34 159 146 149 174 174 155 132 124 139 121 73 7 1 171 165 163 166 167 160 164 174 177 176 177 190 198 199 199
344 345 344 343 342 341 341 339 339 339 336 330 323 315 292 268 262 265 270 267 251 241 236 242 269 287 300 284 221 168 151 174 200 265 327 120 144 133 116 117 290 248 245 252 247 268 287 300 315 316 316 323 319 311 311 310 318 315 322 69 148 95 205 201 200 153 120 145 153 127 58 288 309 186 163 163 166 164 159 164 174 182 181 173 186 200 199 196
343 344 344 343 341 341 341 339 340 340 338 333 328 320 293 257 243 249 256 255 242 238 237 245 275 299 293 269 176 171 189 196 199 200 245 294 156 147 143 173 286 263 254 261 265 275 278 295 314 314 306 301 300 308 311 313 318 304 314 346 158 146 224 213 189 142 112 167 167 123 90 188 327 195 173 170 173 168 154 158 178 191 194 187 189 196 194 195
343 343 344 343 341 342 342 340 341 343 342 338 333 326 294 233 228 242 243 237 232 228 225 236 262 300 297 272 169 174 186 193 200 192 212 264 229 212 200 196 241 278 281 269 274 283 280 296 305 298 290 292 299 311 327 327 321 309 292 308 253 180 226 207 188 159 131 175 172 102 106 167 42 229 189 175 176 167 148 159 185 195 199 197 196 193 187 195
341 342 343 342 341 342 343 341 343 347 347 344 338 331 286 222 225 234 226 222 221 212 216 233 247 285 295 267 174 176 185 192 194 190 220 240 218 216 225 242 253 271 282 269 271 280 279 284 283 277 276 284 295 1 13 341 321 320 192 246 236 160 206 172 191 215 145 149 184 91 133 163 56 129 162 173 174 158 150 171 187 190 196 194 188 191 188 191
340 341 342 342 340 342 343 343 346 350 354 353 345 336 312 263 225 222 222 218 212 204 215 236 250 280 272 223 183 191 197 195 195 205 224 231 218 219 242 254 253 261 270 264 258 261 263 262 264 273 271 270 75 84 29 327 290 296 201 220 221 153 183 168 118 285 139 124 79 72 112 113 72 100 125 155 168 162 166 183 187 174 174 173 172 186 190 188
339 340 342 341 340 342 343 343 349 354 359 5 360 350 342 308 245 229 236 234 224 210 227 238 238 299 257 211 223 219 207 199 205 218 220 219 219 225 246 255 254 262 271 266 255 246 247 254 242 287 313 315 123 120 140 255 239 270 268 220 210 150 178 165 138 192 138 100 103 98 89 85 67 75 109 136 162 166 169 175 172 148 133 154 184 183 177 172
338 339 341 340 340 341 342 345 352 358 4 18 21 17 29 12 331 233 265 255 227 210 235 224 206 238 262 254 281 255 214 203 208 209 206 207 215 229 245 255 256 262 273 268 252 230 213 240 340 308 294 264 236 181 199 236 233 250 267 253 111 143 175 136 134 159 129 96 88 103 99 102 81 46 71 101 146 137 120 123 138 140 133 162 219 216 160 133
337 339 340 339 340 340 344 349 355 6 17 30 27 23 31 10 345 257 310 278 247 253 277 260 235 259 278 290 312 277 202 202 211 198 195 198 207 224 229 240 259 271 264 224 238 235 188 199 253 232 242 241 238 223 218 238 247 253 273 325 91 145 149 131 136 150 129 102 49 92 100 91 71 36 21 33 34 38 34 37 79 149 166 230 284 280 20 63
337 338 339 338 339 340 345 352 3 22 33 31 12 7 11 9 23 341 326 299 283 283 280 278 267 268 278 293 327 304 194 195 209 198 190 201 199 211 216 217 251 275 252 240 254 272 172 203 241 226 230 237 239 240 242 250 252 253 256 3 43 98 102 115 124 145 130 103 77 98 94 64 41 30 16 30 40 27 19 28 44 45 210 322 358 24 16 41
336 337 338 337 337 338 341 355 18 39 25 20 13 24 38 37 35 358 338 306 297 295 284 285 274 267 271 278 299 277 219 187 199 200 185 198 199 202 207 192 202 238 254 257 275 307 284 234 247 238 229 230 247 250 247 252 244 250 262 67 62 93 87 56 74 93 79 94 109 100 88 59 22 27 21 32 42 33 32 47 65 59 46 29 24 29 18 46
335 336 336 336 335 335 334 349 44 153 352 8 30 41 35 29 31 358 337 296 287 292 280 272 266 262 264 271 256 226 222 182 192 203 185 197 205 204 206 189 205 247 291 242 188 267 277 248 247 251 243 220 243 244 224 256 290 279 302 65 113 132 120 104 119 61 27 81 132 117 90 63 16 360 355 31 36 38 48 60 66 64 55 47 43 37 29 41
333 334 334 334 333 332 310 295 247 204 253 316 13 20 4 353 3 340 328 293 277 279 255 245 257 258 254 267 244 211 219 200 205 202 187 201 209 203 214 213 211 258 267 239 209 208 243 255 252 251 250 223 225 264 80 40 337 313 292 254 150 141 136 139 140 103 61 73 130 119 85 20 356 348 330 17 34 41 49 52 51 52 54 55 53 44 40 46
332 332 331 330 328 316 277 272 255 236 268 337 12 21 19 10 15 341 324 314 288 275 244 232 249 254 244 254 240 223 226 219 223 211 194 202 204 198 217 215 201 242 248 243 237 227 249 259 254 222 238 225 119 332 39 97 314 327 294 271 140 130 131 127 126 114 90 94 204 149 79 360 310 344 328 348 22 35 40 45 43 43 47 48 45 39 42 53
330 329 329 326 322 306 266 254 251 260 292 357 16 25 32 27 15 353 334 30 321 266 211 196 216 231 226 236 233 220 227 230 227 220 205 203 206 203 214 223 204 243 245 242 242 231 260 263 254 158 203 53 54 353 307 135 131 334 270 267 128 132 136 137 137 127 127 192 222 199 100 122 280 326 310 333 27 38 36 45 43 42 46 45 44 45 49 51
328 326 325 320 315 295 256 242 246 264 302 343 0 11 19 14 358 345 360 26 321 213 141 175 185 194 207 219 211 182 99 239 219 222 214 205 209 208 213 265 289 275 271 18 322 263 283 289 310 60 81 66 62 350 282 158 111 225 251 191 131 140 147 153 153 140 162 163 50 140 122 116 193 279 251 299 41 48 38 43 41 41 45 46 47 50 54 48
325 322 321 316 309 286 249 234 233 244 296 315 332 343 357 10 349 342 100 39 286 178 153 184 182 211 212 202 200 191 204 228 165 216 214 200 202 200 201 234 223 268 281 65 304 277 270 287 256 95 70 73 111 226 239 176 129 229 240 193 151 158 158 158 154 140 140 104 42 170 125 95 102 189 204 303 38 54 49 47 43 40 42 47 46 45 49 50
321 319 320 313 302 280 244 227 221 218 248 273 291 276 290 334 341 20 87 78 201 191 203 175 166 216 206 192 205 209 231 294 121 184 196 192 201 200 197 228 222 266 267 182 232 273 270 255 211 133 99 147 217 231 219 185 209 244 238 39 18 150 154 131 134 141 101 82 176 216 148 100 107 147 241 290 44 75 76 60 51 51 54 55 51 49 51 53
319 318 318 307 296 274 237 223 216 214 238 266 286 268 281 325 20 60 46 25 208 210 159 152 164 179 175 178 234 218 227 286 168 164 186 196 208 219 226 238 237 271 285 246 240 262 266 267 244 136 164 192 215 244 228 217 243 274 16 28 12 359 357 34 102 119 79 39 263 229 142 106 114 266 279 225 114 124 106 79 62 62 63 60 54 54 53 51
319 319 315 301 289 252 224 219 212 213 240 266 290 306 324 353 65 91 64 270 234 225 122 151 198 159 157 176 242 209 199 261 173 154 189 215 206 233 256 267 266 342 340 318 285 287 293 291 281 220 202 183 125 325 312 309 317 41 48 51 22 338 359 22 2 49 80 295 278 107 86 76 91 164 103 86 80 89 103 103 94 80 68 60 55 52 49 47
322 319 310 294 274 231 203 200 203 207 237 258 306 340 13 41 39 135 224 318 314 221 178 190 227 173 167 189 218 215 180 214 185 148 175 193 159 208 192 196 199 54 336 291 300 318 325 297 252 233 243 92 76 6 328 338 12 40 26 58 61 339 9 19 340 37 87 228 154 100 79 66 74 114 111 99 82 85 106 114 114 110 87 63 53 47 45 43
326 321 308 291 268 210 184 186 199 201 215 256 309 344 63 84 288 219 216 302 261 222 170 155 198 186 167 186 224 223 185 202 207 172 176 175 163 219 232 219 175 126 220 248 325 322 319 314 292 93 347 23 96 60 330 329 11 16 320 101 111 98 53 338 298 63 99 130 123 88 75 90 101 91 106 106 97 94 98 101 105 105 91 67 52 45 42 41
331 328 317 291 239 186 182 186 195 191 209 271 321 42 79 102 251 227 229 239 215 232 195 153 180 185 171 199 223 187 159 238 217 170 162 155 151 233 261 247 192 151 160 329 324 220 147 322 281 147 253 258 88 148 182 225 346 274 203 130 121 141 134 198 232 156 158 146 72 1 67 124 161 159 123 110 102 97 95 97 97 94 87 75 58 47 44 40
339 335 337 314 201 186 187 189 192 192 216 304 36 76 117 222 245 227 235 238 214 225 196 159 161 175 206 225 233 194 175 219 216 158 162 174 179 210 225 230 195 163 127 81 250 224 105 245 248 244 212 147 108 215 176 73 3 277 169 82 30 222 152 176 186 138 140 103 26 8 50 99 115 119 119 108 101 98 99 101 98 94 89 80 66 52 46 38
349 339 356 34 168 182 191 193 193 203 223 51 64 103 200 217 225 219 232 277 265 204 154 141 141 169 240 249 262 239 215 209 186 155 193 194 190 210 226 250 205 168 156 159 218 257 62 289 264 291 308 152 164 209 136 83 262 290 48 35 277 211 141 132 34 79 88 84 44 5 84 99 95 104 113 108 107 107 109 113 112 110 102 86 70 55 42 29
345 322 299 243 159 173 190 195 196 208 211 88 100 208 241 246 228 225 243 263 255 200 129 132 179 172 219 248 269 244 222 218 166 157 226 224 204 221 227 251 229 176 183 183 202 206 118 323 287 26 351 293 211 129 47 56 97 76 28 289 280 56 96 94 78 36 50 82 96 58 112 142 144 131 141 127 127 133 137 135 126 118 107 89 73 62 46 27
340 329 306 194 166 168 180 190 199 205 183 78 152 232 241 241 227 230 248 271 278 253 131 147 199 182 182 208 245 223 181 186 182 167 204 210 229 243 209 223 218 179 192 181 114 78 106 41 300 347 6 301 13 47 19 356 38 92 163 280 58 67 32 32 53 43 65 92 107 94 105 153 170 147 162 155 143 150 166 148 123 110 99 90 78 66 52 37
335 336 350 151 160 162 169 180 189 190 140 57 270 251 235 261 275 285 291 294 293 270 175 165 185 178 183 207 228 212 173 171 184 178 176 167 214 282 284 169 208 25 56 105 117 163 88 99 287 317 340 21 29 41 43 323 351 37 37 16 54 108 122 88 64 97 120 131 141 131 103 311 249 180 160 158 159 160 164 145 120 111 101 94 80 60 49 41
333 345 24 148 156 153 160 168 165 141 85 211 238 261 288 293 297 303 303 296 270 204 168 173 164 148 194 224 231 212 180 168 176 175 171 156 147 310 321 360 116 31 29 46 74 77 62 89 137 305 331 33 31 309 150 153 337 32 52 46 24 33 86 86 38 41 116 134 141 138 144 271 248 193 149 160 172 161 140 124 121 119 106 90 70 53 44 37
340 348 342 173 167 167 161 154 154 151 185 256 246 256 290 299 302 305 306 303 276 159 92 142 160 133 123 359 319 233 208 184 170 143 135 153 109 121 298 13 88 73 42 36 34 35 59 102 104 317 351 27 330 308 68 104 126 105 99 105 93 89 85 76 13 331 53 107 135 141 145 256 261 175 160 170 153 127 120 117 119 118 107 89 70 56 40 30
18 355 307 183 176 186 168 149 237 221 195 272 265 270 292 304 310 303 304 325 24 353 28 88 212 132 81 26 304 323 339 171 152 117 117 109 85 111 313 68 77 82 82 71 311 301 127 100 82 350 332 344 295 327 47 76 86 81 70 65 82 86 92 109 160 271 31 53 74 108 105 255 266 292 159 143 119 117 116 115 117 116 108 96 77 57 40 30
24 11 290 189 187 201 180 158 307 258 238 265 264 281 297 310 313 298 301 352 20 348 17 28 348 51 58 296 323 10 19 62 99 103 125 111 54 21 59 75 77 74 74 84 299 342 31 77 64 332 309 322 316 333 25 42 57 65 46 36 65 65 97 131 149 140 85 32 51 88 70 265 275 3 85 108 107 109 112 113 116 117 110 92 67 44 34 30
340 30 173 186 198 220 201 201 294 274 281 284 283 299 308 319 317 303 305 352 2 18 17 354 37 42 340 258 17 22 42 53 43 56 82 82 48 57 70 76 78 69 66 146 198 6 22 95 76 46 356 348 344 348 360 4 39 75 54 40 60 58 65 83 71 69 62 355 79 107 119 250 266 40 84 99 97 103 115 118 116 112 105 85 66 51 38 31
353 42 165 184 203 221 230 256 295 311 315 317 314 316 331 333 325 327 345 13 10 13 353 332 19 30 356 342 17 24 45 59 45 23 63 74 69 74 74 77 83 89 114 144 141 70 84 122 96 101 109 11 334 304 296 310 45 64 61 64 67 56 61 79 71 66 73 342 54 104 156 207 120 74 76 87 95 107 125 126 120 111 108 103 92 74 43 29
16 41 123 186 209 227 250 271 292 293 290 328 328 325 7 352 322 327 341 26 18 356 329 13 15 22 24 17 32 34 31 44 55 36 38 42 3 60 72 76 78 80 103 107 86 80 86 61 105 133 155 189 205 223 221 161 95 78 83 80 77 72 78 91 91 93 136 121 41 68 150 134 117 110 98 87 91 82 89 106 125 130 117 108 90 68 43 28
31 62 49 11 264 256 271 287 315 304 238 235 354 304 341 343 318 329 334 11 31 11 8 37 22 21 49 42 50 37 20 38 46 32 20 12 348 36 60 63 59 51 59 63 51 77 88 27 360 135 167 219 218 214 184 106 105 116 100 87 87 89 88 86 101 141 147 109 60 237 146 127 153 171 134 106 95 88 84 101 130 133 114 99 80 62 37 17
34 50 37 16 327 259 327 317 317 310 242 198 291 293 336 341 337 340 331 340 27 30 28 28 17 14 47 77 84 40 17 44 42 16 11 9 356 32 33 17 31 40 44 45 39 79 106 52 296 6 324 284 252 188 150 104 106 112 103 109 110 103 103 102 118 158 147 116 155 183 142 131 172 181 145 126 115 112 111 118 126 121 109 97 72 46 27 19
27 18 350 1 352 264 292 302 301 306 240 152 15 349 355 348 335 333 338 335 3 25 42 47 24 17 29 62 85 63 29 56 39 354 9 11 354 32 40 353 14 31 35 45 28 50 91 254 277 13 334 308 322 149 136 102 99 97 96 117 115 101 104 106 109 123 110 112 141 144 127 133 173 178 159 141 122 113 119 128 124 115 109 87 51 35 30 25
31 20 334 338 341 302 303 310 301 314 28 46 48 1 351 353 333 325 348 358 333 359 39 54 46 39 42 49 66 71 58 117 124 355 15 57 9 29 76 300 321 12 24 41 14 23 69 244 279 49 23 311 307 161 122 91 86 76 50 70 103 100 96 100 106 105 99 109 129 124 117 119 172 161 148 136 116 104 113 127 122 115 111 72 41 36 28 9
46 34 354 341 325 309 323 329 328 102 43 343 95 42 342 341 339 332 332 337 345 60 63 49 58 54 38 39 51 37 341 4 117 323 340 83 348 288 138 253 273 15 15 37 29 16 65 144 330 50 55 307 309 107 115 92 75 63 32 17 88 104 100 104 111 115 125 133 125 112 121 152 204 150 115 95 85 84 106 130 122 108 100 59 34 30 14 352
41 40 20 16 300 301 331 334 345 41 18 312 117 89 36 343 344 343 328 324 5 65 71 58 60 56 33 29 16 338 324 328 338 336 331 316 301 292 274 277 273 192 155 80 53 355 103 106 32 70 93 292 312 74 114 83 58 48 354 332 78 99 96 88 69 72 114 134 133 134 162 188 177 111 85 73 67 65 103 132 118 91 73 46 27 27 20 3
Height
1541 1539 1537 1535 1533 1532 1530 1528 1527 1526 1525 1523 1523 1522 1521 1520 1519 1519 1519 1518 1518 1517 1517 1517 1516 1516 1515 1514 1514 1513 1513 1513 1513 1513 1512 1512 1512 1513 1513 1514 1514 1515 1515 1514 1514 1515 1515 1515 1516 1516 1517 1516 1514 1509 1506 1508 1510 1514 1517 1524 1528 1527 1524 1517 1517 1517 1515 1516 1515 1516 1516 1516 1519 1520 1520 1521 1522 1522 1522 1523 1523 1523 1523 1523 1523 1524 1526 1528
1540 1539 1537 1535 1533 1531 1529 1528 1527 1525 1524 1523 1522 1521 1520 1520 1519 1518 1518 1517 1517 1517 1516 1516 1515 1515 1514 1513 1513 1512 1512 1512 1512 1512 1512 1512 1512 1512 1512 1513 1513 1513 1514 1514 1514 1513 1513 1514 1515 1516 1516 1514 1512 1508 1506 1506 1508 1511 1515 1522 1524 1521 1517 1509 1509 1510 1510 1514 1514 1514 1515 1515 1517 1518 1519 1522 1523 1523 1523 1524 1523 1524 1523 1524 1524 1524 1526 1527
1540 1538 1536 1534 1532 1531 1529 1527 1526 1525 1523 1522 1521 1521 1520 1519 1518 1517 1517 1516 1516 1516 1515 1515 1515 1514 1513 1513 1512 1512 1511 1511 1511 1512 1512 1511 1511 1511 1512 1512 1512 1512 1513 1513 1513 1513 1512 1512 1514 1514 1514 1514 1511 1508 1506 1506 1506 1506 1509 1520 1520 1513 1511 1507 1507 1508 1508 1510 1512 1514 1515 1515 1516 1517 1519 1521 1523 1523 1523 1522 1522 1523 1523 1524 1524 1525 1526 1527
1540 1538 1536 1534 1532 1530 1528 1526 1525 1524 1523 1522 1521 1520 1519 1518 1518 1517 1516 1516 1515 1515 1515 1514 1514 1513 1513 1512 1511 1511 1511 1511 1511 1511 1511 1511 1511 1511 1511 1511 1511 1512 1512 1512 1513 1513 1513 1512 1513 1513 1512 1511 1509 1508 1505 1504 1505 1502 1505 1514 1512 1507 1509 1507 1506 1507 1507 1509 1510 1513 1515 1517 1517 1518 1519 1520 1524 1525 1521 1519 1519 1520 1522 1523 1524 1525 1526 1527
1540 1537 1535 1533 1531 1529 1527 1526 1524 1523 1522 1521 1520 1519 1519 1518 1517 1516 1515 1515 1514 1514 1514 1514 1513 1513 1512 1511 1511 1510 1511 1514 1512 1510 1511 1511 1511 1511 1510 1511 1511 1511 1511 1512 1513 1513 1513 1513 1513 1512 1512 1508 1506 1507 1503 1499 1500 1501 1502 1504 1504 1505 1508 1507 1506 1507 1508 1509 1510 1512 1515 1516 1517 1518 1518 1519 1522 1522 1517 1517 1518 1519 1520 1521 1522 1524 1526 1527
1539 1537 1535 1532 1530 1528 1526 1524 1523 1522 1521 1520 1519 1518 1518 1517 1516 1515 1515 1514 1514 1513 1513 1513 1513 1512 1511 1511 1511 1510 1511 1515 1511 1509 1511 1510 1510 1510 1510 1510 1510 1510 1511 1512 1512 1513 1514 1514 1513 1511 1511 1509 1507 1507 1502 1497 1497 1502 1505 1501 1501 1503 1504 1506 1506 1506 1508 1508 1509 1511 1513 1514 1517 1518 1517 1517 1518 1516 1514 1516 1518 1519 1520 1521 1523 1524 1526 1527
1538 1536 1534 1532 1530 1527 1525 1524 1522 1521 1520 1519 1518 1517 1517 1516 1515 1515 1514 1513 1513 1513 1512 1512 1512 1511 1511 1510 1510 1510 1509 1510 1509 1509 1510 1510 1510 1510 1510 1510 1510 1510 1511 1512 1512 1513 1514 1513 1512 1510 1511 1511 1508 1506 1502 1498 1495 1501 1507 1504 1503 1503 1502 1505 1505 1506 1507 1507 1507 1509 1512 1513 1516 1517 1517 1518 1516 1515 1515 1516 1518 1519 1521 1523 1525 1526 1528 1528
1537 1535 1533 1531 1529 1526 1524 1523 1521 1520 1519 1517 1517 1516 1515 1515 1514 1514 1513 1513 1512 1512 1512 1511 1511 1511 1511 1510 1509 1509 1508 1508 1508 1509 1510 1510 1510 1509 1510 1510 1510 1510 1511 1512 1512 1513 1513 1511 1510 1509 1509 1509 1507 1505 1502 1499 1497 1500 1505 1504 1503 1503 1503 1504 1505 1507 1508 1508 1508 1510 1512 1513 1514 1514 1516 1517 1517 1516 1516 1517 1518 1520 1523 1525 1526 1528 1530 1531
1536 1534 1532 1530 1528 1525 1523 1521 1520 1518 1517 1516 1515 1514 1514 1514 1513 1513 1512 1512 1511 1511 1511 1511 1511 1510 1510 1510 1509 1509 1508 1507 1508 1509 1509 1510 1510 1510 1510 1510 1510 1511 1511 1512 1512 1513 1512 1510 1509 1508 1508 1507 1505 1505 1502 1503 1504 1501 1502 1503 1502 1503 1504 1504 1506 1508 1509 1509 1509 1511 1514 1514 1513 1514 1516 1517 1517 1517 1517 1518 1520 1521 1524 1526 1528 1531 1533 1535
1536 1533 1531 1529 1526 1524 1522 1520 1519 1517 1516 1515 1514 1513 1512 1512 1512 1512 1511 1511 1510 1510 1510 1510 1510 1509 1509 1509 1510 1509 1507 1507 1508 1509 1509 1509 1509 1509 1510 1510 1510 1510 1511 1511 1511 1511 1511 1510 1509 1508 1508 1505 1504 1504 1502 1504 1505 1501 1501 1502 1502 1502 1504 1505 1506 1507 1508 1510 1510 1512 1516 1515 1514 1516 1519 1518 1517 1517 1517 1519 1521 1522 1524 1527 1529 1531 1533 1536
1535 1532 1530 1527 1525 1523 1521 1519 1517 1516 1514 1513 1512 1511 1511 1511 1511 1510 1510 1510 1509 1509 1509 1509 1509 1509 1509 1508 1509 1508 1506 1507 1508 1508 1509 1509 1509 1509 1510 1510 1510 1511 1511 1510 1510 1510 1511 1510 1509 1508 1507 1506 1504 1503 1502 1502 1502 1500 1501 1504 1503 1503 1505 1506 1507 1507 1506 1511 1512 1512 1515 1515 1515 1518 1518 1517 1517 1517 1517 1519 1521 1522 1525 1527 1527 1527 1528 1531
1534 1531 1529 1527 1524 1522 1520 1518 1516 1514 1513 1511 1510 1510 1509 1509 1509 1509 1509 1509 1509 1509 1509 1508 1508 1508 1508 1508 1508 1506 1505 1507 1508 1508 1509 1508 1509 1509 1509 1510 1510 1510 1510 1509 1509 1510 1511 1510 1509 1509 1507 1506 1506 1505 1503 1501 1500 1498 1499 1507 1510 1507 1509 1508 1508 1507 1505 1511 1512 1510 1519 1522 1519 1518 1517 1516 1517 1517 1518 1520 1522 1523 1526 1527 1526 1527 1528 1530
1533 1530 1528 1526 1523 1521 1519 1517 1515 1513 1511 1510 1509 1508 1508 1508 1508 1508 1508 1508 1508 1508 1508 1508 1508 1508 1507 1506 1504 1504 1505 1506 1507 1508 1508 1509 1509 1509 1509 1509 1509 1509 1510 1509 1509 1509 1511 1510 1509 1508 1506 1505 1506 1506 1503 1499 1500 1500 1499 1506 1514 1517 1517 1510 1509 1508 1506 1511 1508 1509 1529 1533 1522 1518 1517 1518 1518 1518 1520 1521 1523 1524 1525 1526 1526 1527 1528 1529
1531 1529 1527 1525 1522 1520 1518 1516 1514 1512 1510 1509 1508 1507 1507 1507 1507 1507 1507 1507 1507 1507 1508 1508 1507 1507 1506 1504 1502 1504 1504 1505 1506 1507 1507 1508 1508 1508 1508 1509 1509 1509 1509 1509 1509 1509 1510 1510 1509 1507 1505 1505 1505 1504 1503 1501 1501 1503 1504 1507 1513 1523 1522 1510 1508 1509 1508 1513 1507 1510 1532 1534 1523 1521 1519 1520 1520 1519 1521 1522 1523 1523 1523 1524 1524 1525 1526 1527
1530 1528 1526 1524 1521 1519 1517 1515 1513 1511 1509 1508 1507 1507 1506 1506 1506 1506 1506 1506 1507 1507 1507 1507 1506 1506 1505 1502 1501 1502 1503 1504 1504 1505 1507 1507 1507 1507 1507 1508 1508 1509 1509 1509 1509 1509 1509 1509 1509 1507 1505 1505 1505 1507 1509 1509 1505 1504 1512 1517 1515 1520 1520 1511 1508 1506 1507 1513 1508 1513 1531 1533 1526 1523 1521 1522 1523 1522 1523 1523 1522 1522 1522 1523 1524 1525 1526 1526
1529 1526 1524 1522 1520 1518 1516 1514 1512 1510 1509 1507 1507 1506 1506 1506 1506 1506 1506 1506 1506 1507 1507 1506 1506 1506 1505 1502 1501 1501 1502 1502 1503 1504 1506 1506 1507 1507 1507 1508 1507 1508 1508 1508 1508 1508 1508 1508 1507 1506 1506 1505 1507 1512 1516 1518 1514 1509 1514 1520 1518 1519 1520 1516 1512 1506 1503 1508 1510 1515 1528 1533 1528 1525 1524 1524 1524 1524 1523 1523 1522 1522 1523 1524 1526 1527 1526 1526
1527 1525 1523 1521 1519 1516 1515 1513 1511 1510 1508 1507 1507 1506 1506 1506 1505 1506 1505 1506 1506 1506 1506 1506 1505 1505 1503 1500 1500 1500 1500 1501 1502 1504 1504 1505 1506 1506 1507 1507 1506 1508 1507 1507 1508 1507 1507 1507 1507 1507 1506 1506 1507 1513 1524 1529 1523 1513 1512 1515 1514 1515 1518 1518 1516 1510 1504 1508 1514 1517 1523 1531 1530 1526 1526 1525 1525 1524 1523 1523 1523 1524 1526 1527 1527 1527 1526 1525
1526 1524 1522 1520 1518 1515 1514 1512 1510 1509 1508 1507 1507 1507 1507 1506 1506 1506 1506 1506 1506 1506 1506 1505 1505 1507 1504 1499 1499 1498 1498 1501 1502 1502 1503 1504 1505 1506 1507 1506 1506 1507 1506 1506 1506 1506 1507 1506 1506 1508 1508 1509 1509 1515 1527 1529 1519 1513 1513 1513 1513 1513 1514 1516 1517 1512 1507 1512 1519 1522 1527 1532 1531 1528 1527 1527 1526 1525 1524 1525 1525 1526 1528 1528 1526 1526 1527 1527
1525 1523 1521 1519 1517 1515 1513 1512 1510 1509 1508 1508 1508 1507 1507 1507 1507 1506 1506 1506 1505 1505 1505 1503 1503 1505 1503 1498 1497 1498 1499 1500 1501 1502 1502 1502 1504 1506 1506 1505 1505 1506 1506 1507 1506 1504 1506 1507 1509 1514 1514 1512 1509 1511 1516 1513 1507 1509 1508 1506 1511 1514 1513 1512 1512 1508 1506 1517 1525 1525 1531 1535 1533 1531 1528 1528 1528 1527 1528 1528 1528 1529 1528 1527 1526 1527 1529 1530
1523 1521 1520 1517 1516 1514 1513 1511 1510 1509 1509 1508 1508 1508 1508 1507 1507 1507 1506 1505 1504 1502 1501 1501 1500 1499 1497 1495 1496 1498 1498 1500 1500 1501 1502 1502 1504 1504 1505 1505 1504 1505 1505 1507 1507 1503 1504 1512 1516 1515 1512 1507 1504 1503 1503 1500 1501 1504 1502 1501 1505 1510 1514 1511 1510 1507 1503 1518 1532 1529 1532 1536 1534 1532 1530 1529 1530 1530 1531 1531 1530 1530 1529 1527 1527 1529 1532 1533
1522 1520 1518 1516 1515 1513 1512 1511 1510 1510 1509 1509 1508 1508 1507 1507 1508 1509 1506 1503 1501 1500 1499 1499 1499 1498 1495 1495 1495 1496 1498 1499 1500 1500 1501 1502 1503 1504 1504 1503 1504 1507 1504 1503 1505 1503 1505 1515 1514 1506 1502 1498 1497 1497 1497 1498 1500 1500 1499 1501 1506 1510 1516 1514 1512 1513 1504 1514 1535 1532 1532 1539 1535 1533 1533 1531 1532 1533 1533 1533 1532 1530 1528 1528 1529 1531 1532 1533
1521 1519 1517 1516 1514 1513 1512 1511 1510 1510 1509 1509 1508 1507 1507 1508 1509 1508 1506 1503 1499 1497 1497 1497 1497 1496 1494 1495 1495 1496 1498 1498 1499 1500 1500 1501 1502 1503 1503 1502 1505 1507 1502 1502 1507 1509 1513 1515 1505 1495 1494 1494 1496 1495 1496 1498 1497 1497 1496 1502 1513 1515 1519 1522 1518 1516 1509 1516 1535 1535 1536 1542 1537 1534 1535 1533 1534 1535 1536 1534 1532 1531 1529 1529 1530 1531 1532 1532
1519 1517 1516 1515 1513 1512 1511 1511 1510 1509 1509 1508 1508 1508 1508 1508 1508 1507 1507 1505 1500 1496 1495 1495 1495 1494 1494 1494 1494 1495 1496 1496 1497 1498 1499 1500 1500 1501 1502 1502 1505 1506 1504 1507 1512 1518 1520 1509 1494 1489 1490 1494 1497 1493 1493 1496 1494 1495 1497 1503 1514 1513 1517 1528 1526 1520 1514 1517 1531 1535 1538 1542 1538 1537 1536 1535 1535 1535 1536 1535 1532 1532 1531 1531 1531 1531 1532 1532
1517 1515 1515 1513 1512 1512 1510 1510 1510 1509 1509 1508 1508 1509 1508 1508 1508 1507 1505 1504 1501 1495 1493 1493 1493 1493 1493 1492 1493 1494 1495 1495 1495 1496 1497 1499 1498 1500 1501 1500 1504 1508 1506 1506 1509 1515 1514 1497 1487 1489 1489 1492 1494 1491 1492 1497 1498 1496 1496 1500 1508 1509 1512 1521 1522 1520 1522 1525 1527 1529 1541 1548 1543 1543 1541 1536 1536 1535 1535 1535 1532 1532 1532 1533 1533 1531 1532 1532
1515 1514 1513 1512 1512 1510 1510 1510 1509 1509 1509 1508 1509 1507 1507 1507 1506 1506 1504 1505 1505 1496 1491 1493 1492 1491 1491 1492 1493 1492 1493 1494 1493 1494 1495 1495 1497 1498 1498 1498 1504 1508 1506 1504 1506 1511 1504 1488 1485 1490 1489 1488 1491 1493 1493 1498 1503 1503 1496 1491 1497 1505 1511 1518 1519 1522 1535 1544 1530 1521 1544 1560 1550 1545 1545 1540 1538 1537 1535 1534 1533 1534 1533 1533 1534 1532 1532 1533
1514 1513 1511 1511 1510 1509 1509 1509 1508 1509 1508 1508 1508 1506 1507 1506 1506 1506 1504 1510 1511 1497 1491 1494 1492 1491 1490 1491 1491 1491 1496 1494 1489 1493 1494 1494 1495 1495 1499 1499 1500 1504 1502 1500 1502 1503 1495 1483 1483 1488 1488 1488 1492 1495 1492 1493 1505 1509 1495 1485 1491 1500 1509 1517 1517 1522 1538 1542 1525 1516 1539 1562 1558 1548 1546 1543 1542 1540 1537 1536 1535 1535 1536 1535 1535 1534 1533 1533
1512 1511 1510 1509 1508 1508 1508 1507 1508 1508 1507 1508 1506 1506 1507 1505 1506 1505 1506 1522 1519 1496 1491 1494 1492 1491 1489 1489 1489 1493 1501 1495 1488 1491 1491 1493 1494 1493 1500 1501 1500 1502 1495 1498 1507 1501 1491 1487 1486 1487 1489 1492 1497 1499 1491 1489 1503 1506 1489 1483 1493 1500 1505 1511 1510 1517 1526 1523 1521 1522 1530 1553 1565 1553 1544 1543 1544 1543 1540 1538 1537 1536 1538 1537 1535 1535 1534 1533
1510 1509 1508 1507 1506 1507 1506 1506 1508 1507 1507 1508 1505 1506 1505 1504 1506 1503 1513 1535 1520 1491 1489 1491 1488 1490 1488 1488 1488 1489 1493 1490 1490 1493 1488 1492 1494 1492 1498 1499 1499 1501 1493 1502 1515 1500 1487 1491 1489 1486 1492 1496 1496 1494 1487 1487 1497 1495 1481 1481 1488 1491 1496 1502 1507 1515 1515 1517 1533 1533 1526 1549 1567 1553 1543 1545 1544 1546 1545 1540 1539 1539 1539 1538 1536 1535 1534 1533
1508 1507 1506 1506 1505 1505 1504 1505 1506 1506 1507 1506 1505 1506 1504 1504 1505 1502 1519 1532 1508 1487 1489 1489 1488 1489 1486 1487 1488 1487 1488 1488 1490 1491 1488 1492 1493 1492 1496 1495 1495 1498 1493 1499 1508 1497 1485 1486 1482 1484 1492 1494 1489 1485 1481 1485 1490 1484 1477 1480 1481 1483 1487 1491 1503 1513 1514 1524 1539 1535 1527 1549 1569 1557 1547 1549 1548 1548 1547 1542 1540 1541 1541 1540 1538 1536 1535 1533
1506 1505 1505 1504 1503 1503 1503 1504 1504 1505 1506 1505 1505 1505 1503 1505 1505 1515 1532 1524 1499 1490 1488 1487 1489 1488 1487 1490 1490 1488 1488 1488 1487 1488 1490 1491 1491 1491 1493 1492 1492 1496 1496 1495 1497 1492 1483 1480 1478 1479 1485 1484 1481 1479 1477 1479 1481 1478 1480 1484 1485 1487 1487 1491 1498 1504 1517 1535 1538 1531 1526 1539 1564 1564 1551 1549 1548 1545 1545 1544 1543 1542 1542 1541 1539 1537 1535 1534
1504 1503 1503 1502 1502 1501 1502 1503 1503 1505 1505 1505 1505 1503 1505 1506 1509 1528 1535 1509 1494 1494 1488 1489 1489 1485 1488 1493 1493 1490 1489 1489 1485 1488 1493 1491 1492 1493 1493 1496 1496 1499 1503 1500 1497 1490 1484 1484 1481 1476 1476 1475 1477 1480 1477 1474 1474 1478 1486 1491 1496 1500 1498 1502 1504 1506 1528 1545 1538 1530 1525 1534 1560 1567 1553 1547 1544 1541 1544 1545 1544 1544 1542 1541 1539 1538 1536 1535
1502 1502 1501 1500 1500 1500 1501 1502 1502 1504 1504 1504 1505 1503 1506 1512 1517 1526 1518 1499 1499 1498 1489 1491 1490 1486 1489 1491 1492 1491 1489 1490 1486 1486 1492 1492 1495 1496 1496 1500 1500 1507 1514 1508 1503 1497 1490 1488 1482 1477 1475 1474 1481 1488 1485 1479 1477 1483 1491 1497 1509 1517 1517 1520 1521 1525 1540 1543 1534 1529 1529 1543 1562 1559 1549 1546 1543 1541 1543 1543 1544 1544 1542 1541 1540 1539 1538 1536
1501 1500 1500 1499 1499 1499 1500 1502 1502 1504 1504 1503 1505 1503 1508 1521 1522 1514 1506 1502 1501 1492 1484 1488 1487 1485 1490 1493 1493 1489 1489 1492 1487 1487 1489 1491 1496 1496 1493 1494 1493 1504 1513 1508 1508 1507 1501 1493 1483 1482 1481 1475 1480 1492 1497 1493 1489 1492 1495 1501 1514 1523 1532 1537 1532 1535 1544 1541 1533 1527 1533 1555 1565 1554 1546 1545 1543 1543 1543 1543 1544 1543 1543 1543 1541 1540 1539 1537
1500 1499 1499 1498 1498 1499 1500 1501 1502 1503 1503 1503 1504 1505 1513 1524 1517 1504 1503 1501 1492 1486 1484 1486 1486 1488 1490 1493 1492 1488 1492 1494 1486 1487 1491 1492 1499 1500 1495 1493 1491 1497 1504 1507 1509 1509 1512 1508 1492 1487 1486 1479 1478 1485 1491 1491 1491 1493 1489 1494 1506 1512 1525 1535 1528 1531 1540 1539 1535 1531 1542 1562 1565 1555 1547 1544 1543 1543 1543 1544 1544 1544 1544 1543 1542 1541 1540 1538
1499 1499 1499 1498 1498 1499 1499 1501 1501 1502 1504 1502 1504 1511 1519 1520 1510 1502 1501 1493 1487 1487 1485 1483 1487 1493 1495 1492 1488 1484 1490 1494 1487 1488 1494 1494 1499 1499 1495 1492 1490 1493 1502 1511 1509 1502 1510 1510 1489 1480 1479 1476 1479 1479 1476 1484 1494 1492 1485 1494 1504 1502 1507 1516 1517 1521 1529 1540 1548 1548 1553 1557 1552 1550 1545 1543 1545 1544 1544 1545 1544 1545 1545 1543 1543 1541 1540 1539
1499 1498 1498 1498 1498 1498 1499 1500 1501 1502 1503 1502 1507 1515 1515 1508 1502 1498 1492 1486 1486 1487 1488 1490 1491 1497 1501 1496 1492 1487 1485 1488 1489 1492 1495 1494 1495 1495 1492 1488 1484 1486 1495 1505 1505 1501 1509 1506 1486 1479 1478 1473 1477 1476 1472 1484 1496 1492 1492 1501 1497 1489 1495 1508 1518 1518 1524 1549 1563 1559 1560 1557 1553 1555 1548 1545 1548 1546 1545 1546 1544 1545 1545 1543 1543 1541 1540 1539
1499 1498 1498 1498 1497 1498 1499 1500 1500 1502 1502 1503 1510 1512 1506 1498 1492 1489 1484 1482 1483 1481 1488 1498 1496 1496 1502 1500 1496 1491 1486 1487 1489 1493 1497 1496 1494 1490 1488 1485 1479 1481 1485 1490 1496 1496 1502 1505 1489 1482 1486 1477 1471 1474 1474 1477 1484 1493 1501 1498 1487 1486 1493 1502 1517 1525 1536 1561 1568 1560 1564 1565 1564 1566 1555 1548 1551 1549 1547 1546 1544 1545 1545 1544 1543 1542 1541 1540
1498 1498 1497 1497 1497 1497 1498 1499 1500 1502 1501 1504 1509 1506 1499 1493 1486 1482 1480 1479 1480 1480 1487 1497 1494 1491 1497 1499 1496 1489 1487 1492 1492 1494 1496 1498 1495 1486 1484 1484 1478 1478 1477 1479 1489 1489 1493 1506 1497 1483 1487 1482 1471 1478 1487 1481 1477 1486 1493 1486 1488 1504 1509 1509 1520 1531 1547 1568 1572 1564 1565 1564 1563 1564 1556 1552 1553 1550 1547 1546 1545 1545 1544 1544 1544 1542 1542 1541
1498 1497 1497 1497 1498 1498 1498 1500 1500 1501 1502 1505 1508 1502 1494 1489 1482 1478 1478 1478 1478 1481 1485 1489 1487 1488 1491 1493 1491 1486 1485 1490 1491 1493 1495 1497 1496 1484 1478 1481 1478 1476 1475 1475 1484 1486 1489 1506 1508 1489 1482 1483 1481 1489 1501 1497 1484 1482 1486 1486 1492 1505 1512 1514 1519 1526 1542 1562 1570 1570 1571 1566 1559 1554 1551 1551 1550 1547 1547 1546 1546 1546 1545 1544 1544 1542 1542 1541
1498 1497 1497 1498 1499 1498 1499 1500 1500 1502 1504 1504 1503 1498 1491 1488 1482 1475 1475 1475 1474 1476 1481 1482 1482 1487 1489 1486 1485 1484 1483 1485 1486 1490 1491 1491 1492 1485 1476 1477 1477 1477 1475 1474 1480 1486 1489 1502 1511 1499 1486 1490 1497 1497 1499 1500 1495 1493 1498 1501 1501 1502 1505 1511 1516 1519 1528 1548 1563 1571 1577 1569 1552 1545 1547 1547 1545 1544 1545 1545 1546 1546 1545 1544 1544 1543 1542 1540
1498 1498 1498 1498 1499 1499 1499 1501 1501 1502 1504 1502 1498 1494 1490 1487 1482 1476 1473 1471 1470 1470 1472 1476 1478 1482 1484 1484 1484 1482 1481 1483 1484 1487 1489 1487 1489 1489 1480 1474 1475 1475 1478 1481 1484 1488 1493 1500 1508 1507 1500 1502 1503 1493 1488 1491 1493 1496 1501 1505 1505 1505 1508 1519 1529 1524 1521 1536 1550 1561 1574 1567 1547 1541 1544 1543 1543 1544 1543 1545 1546 1546 1545 1545 1544 1543 1542 1540
1499 1500 1499 1498 1500 1500 1500 1502 1502 1501 1503 1500 1495 1491 1488 1486 1483 1479 1474 1470 1469 1468 1468 1472 1475 1475 1478 1481 1481 1479 1479 1483 1483 1485 1488 1487 1486 1487 1480 1473 1473 1474 1480 1490 1490 1486 1489 1497 1506 1509 1506 1504 1499 1489 1485 1487 1487 1492 1499 1501 1503 1505 1510 1523 1535 1530 1527 1538 1543 1549 1567 1564 1544 1539 1541 1540 1542 1543 1543 1544 1545 1545 1545 1545 1544 1543 1542 1541
1500 1501 1500 1500 1501 1500 1502 1504 1503 1502 1500 1495 1491 1488 1486 1486 1484 1480 1475 1471 1471 1470 1471 1473 1472 1473 1477 1477 1477 1478 1478 1481 1483 1483 1486 1486 1483 1481 1477 1473 1474 1475 1481 1491 1491 1485 1489 1500 1509 1511 1505 1499 1493 1488 1485 1484 1487 1497 1503 1502 1503 1508 1509 1514 1521 1523 1531 1543 1543 1550 1569 1563 1544 1540 1541 1541 1542 1542 1543 1544 1543 1545 1545 1544 1544 1543 1542 1542
1500 1501 1501 1502 1503 1502 1504 1506 1506 1504 1499 1493 1490 1488 1486 1485 1484 1481 1477 1474 1473 1472 1474 1475 1472 1473 1476 1474 1475 1477 1477 1484 1488 1483 1483 1486 1484 1480 1476 1474 1475 1478 1483 1490 1490 1488 1496 1506 1510 1517 1520 1516 1510 1505 1500 1496 1497 1505 1509 1506 1505 1507 1507 1511 1516 1520 1534 1543 1541 1553 1570 1562 1545 1541 1541 1541 1542 1543 1543 1543 1543 1544 1544 1543 1544 1543 1543 1543
1500 1501 1502 1503 1504 1504 1504 1504 1504 1505 1501 1495 1493 1490 1488 1486 1484 1481 1478 1474 1473 1473 1475 1476 1473 1474 1475 1473 1477 1478 1476 1483 1490 1486 1483 1485 1483 1479 1478 1477 1478 1479 1482 1485 1484 1485 1497 1505 1508 1519 1532 1535 1532 1526 1518 1510 1506 1508 1510 1509 1508 1508 1508 1515 1521 1528 1541 1545 1541 1551 1563 1557 1545 1543 1543 1543 1543 1543 1543 1543 1544 1544 1544 1544 1544 1543 1544 1543
1501 1504 1505 1505 1505 1504 1503 1503 1503 1505 1503 1500 1497 1493 1492 1492 1487 1481 1477 1476 1476 1474 1475 1476 1474 1476 1478 1478 1483 1487 1483 1483 1486 1487 1487 1487 1485 1481 1480 1480 1480 1481 1482 1483 1482 1485 1496 1503 1505 1513 1522 1524 1523 1518 1509 1506 1510 1514 1514 1513 1512 1512 1512 1516 1525 1535 1541 1545 1549 1551 1551 1552 1550 1546 1545 1544 1543 1544 1544 1543 1544 1544 1544 1545 1544 1544 1544 1543
1504 1507 1508 1508 1508 1506 1505 1503 1502 1503 1501 1501 1501 1497 1496 1498 1494 1486 1480 1479 1480 1478 1477 1478 1479 1482 1485 1484 1488 1494 1492 1488 1488 1490 1492 1491 1487 1484 1482 1482 1482 1483 1482 1482 1483 1488 1499 1507 1505 1507 1510 1509 1509 1507 1501 1502 1508 1512 1514 1515 1515 1514 1514 1517 1526 1533 1534 1543 1557 1553 1543 1549 1552 1546 1544 1545 1543 1544 1544 1543 1544 1544 1544 1545 1544 1544 1543 1542
1506 1508 1509 1510 1511 1509 1508 1505 1502 1500 1498 1499 1501 1499 1498 1500 1500 1496 1488 1482 1481 1481 1483 1486 1486 1486 1486 1484 1490 1497 1496 1495 1497 1497 1496 1494 1491 1489 1487 1485 1485 1485 1483 1484 1485 1488 1500 1509 1505 1504 1507 1504 1502 1503 1501 1502 1506 1508 1511 1514 1514 1515 1517 1519 1525 1529 1527 1535 1550 1549 1543 1548 1548 1544 1543 1543 1542 1543 1544 1543 1544 1544 1544 1544 1544 1543 1542 1541
1508 1509 1509 1509 1510 1509 1508 1506 1501 1500 1499 1499 1500 1500 1501 1503 1502 1498 1493 1489 1488 1484 1487 1494 1494 1490 1487 1484 1489 1498 1500 1502 1505 1503 1499 1498 1495 1494 1495 1494 1490 1487 1485 1488 1488 1489 1500 1508 1504 1503 1507 1504 1502 1503 1501 1501 1506 1509 1510 1512 1513 1515 1518 1520 1524 1526 1525 1532 1540 1542 1544 1546 1543 1542 1542 1541 1542 1543 1542 1543 1544 1543 1544 1543 1542 1542 1541 1541
1512 1513 1511 1509 1509 1507 1505 1504 1501 1501 1500 1499 1502 1504 1503 1504 1503 1499 1493 1494 1496 1491 1489 1496 1496 1492 1491 1489 1491 1498 1500 1500 1503 1502 1498 1499 1499 1497 1499 1499 1495 1491 1490 1492 1493 1492 1500 1508 1504 1503 1509 1509 1503 1502 1502 1504 1509 1513 1514 1514 1514 1517 1520 1523 1526 1528 1531 1538 1541 1541 1545 1547 1542 1540 1541 1541 1542 1541 1541 1543 1543 1543 1543 1543 1542 1542 1541 1540
1516 1517 1515 1513 1511 1507 1504 1503 1501 1502 1502 1502 1505 1505 1504 1505 1504 1500 1494 1492 1495 1494 1491 1494 1494 1491 1492 1493 1494 1498 1497 1494 1496 1496 1493 1496 1497 1496 1497 1496 1494 1495 1495 1495 1496 1496 1500 1507 1505 1506 1516 1515 1506 1505 1508 1507 1509 1515 1520 1520 1518 1520 1523 1526 1527 1528 1532 1539 1543 1544 1548 1547 1542 1539 1540 1541 1540 1540 1541 1541 1542 1542 1543 1542 1542 1541 1540 1539
1517 1516 1515 1515 1513 1508 1506 1505 1502 1504 1506 1504 1503 1503 1505 1506 1501 1500 1501 1496 1491 1492 1490 1489 1491 1492 1495 1497 1496 1496 1494 1492 1492 1491 1491 1492 1492 1492 1493 1492 1491 1494 1496 1497 1499 1498 1501 1506 1507 1510 1520 1518 1509 1509 1508 1508 1520 1530 1528 1523 1521 1521 1523 1526 1527 1527 1529 1534 1540 1545 1545 1543 1540 1539 1540 1541 1541 1540 1541 1541 1542 1542 1542 1542 1541 1540 1540 1539